Terminal Aerodrome Forecast
Issued by NWS

Home | Current Version | Previous Version | Text Only | Print | Product List | Glossary On
Versions: 1 2 3 4 5 6 7 8 9 10 11 12 13 14 15 16 17 18 19 20 21 22 23 24 25 26 27 28 29 30 31 32 33 34 35 36 37 38 39 40 41 42 43 44 45 46 47 48 49
000
FTUS45 KBOU 032320
TAFAPA
TAF
KAPA 032320Z 0400/0424 26015KT P6SM -TSRA SCT070CB BKN120
      TEMPO 0400/0401 26020G30KT 4SM TSRA OVC050CB
     FM040100 25012KT P6SM VCSH BKN080 BKN140
     FM040200 25012KT P6SM SCT080 BKN140
     FM040600 19008KT P6SM SCT100 SCT150
     FM041400 VRB06KT P6SM SCT090 BKN140
     FM042100 14007KT P6SM VCSH SCT080 BKN120=

USA.gov is the U.S. government's official web portal to all federal, state and local government web resources and services.